Weather Roundup
Issued by NWS Corpus Christi, TX

Home | Current Version | Previous Version | Text Only | Print | Product List | Glossary On
Versions: 1 2 3 4 5 6 7 8 9 10 11 12 13 14 15 16 17 18 19 20 21 22 23 24 25 26 27 28 29 30 31 32 33 34 35 36 37 38 39 40 41 42 43 44 45 46 47 48 49 50
000
ASUS44 KCRP 301910
HRRCRP

SOUTH TEXAS REGIONAL WEATHER ROUNDUP
NATIONAL WEATHER SERVICE CORPUS CHRISTI TX
200 PM CDT MON MAY 30 2016


TXZ229>244-302000-
...CORPUS CHRISTI AREA OBSERVATIONS...

CITY           SKY/WX    TMP DP  RH WIND       PRES   REMARKS
CORPUS CHRISTI PTSUNNY   86  71  60 E18G25    29.96F HX  91
NAS CORPUS CHR SUNNY     85  76  74 SE21      29.97F HX  94
ROCKPORT       CLOUDY    84  74  71 SE10      29.96F HX  91
KINGSVILLE NAS SUNNY     89  75  63 E13       29.96F HX  99
ALICE          SUNNY     87  69  54 E14G23    29.95F HX  91
FALFURRIAS     SUNNY     89  65  44 E10G17    29.96F HX  90
$$

...VICTORIA AREA OBSERVATIONS...

CITY           SKY/WX    TMP DP  RH WIND       PRES   REMARKS
VICTORIA       SUNNY     85  72  65 S20G26    29.93S HX  91
BEEVILLE       FAIR      83  73  72 SE14G25   29.95S
PLEASANTON     SUNNY     85  64  50 E9        29.98F
SAN ANTONIO    MOSUNNY   83  65  54 S5        29.99F
$$

...LAREDO AREA OBSERVATIONS...

CITY           SKY/WX    TMP DP  RH WIND       PRES   REMARKS
LAREDO         MOSUNNY   89  61  38 E17       29.97F
COTULLA        MOSUNNY   85  63  47 SE9       29.99F
DEL RIO        CLOUDY    83  68  60 SE23G29   29.97S
MCALLEN        PTSUNNY   95  74  50 E9        29.94F HX 105
HEBBRONVILLE   MOSUNNY   83  64  53 SE9       30.00F
$$

...OTHER TEXAS OBSERVATIONS...

CITY           SKY/WX    TMP DP  RH WIND       PRES   REMARKS
BROWNSVILLE    CLOUDY    82  76  81 E15G24    29.97F THUNDER
HOUSTON        CLOUDY    81  70  69 S12       29.96F
COL. STATION   MOSUNNY   85  67  54 NW7       29.98F
AUSTIN         MOSUNNY   87  62  43 S7        29.97R
WACO           SUNNY     82  63  52 NW7       29.99F
FORT WORTH     PTSUNNY   81  61  50 VRB5      29.98F
WICHITA FALLS  SUNNY     80  65  59 W7        29.97F
LUBBOCK        MOSUNNY   75  63  66 S7        30.04F
EL PASO        MOSUNNY   88  40  18 S9        30.00F
$$

...MARINE OBSERVATIONS...

STATION/POSITION TIME  SKY/WX   TEMP    WIND        PRES    VSBY  WAVE   SWELL
                                AIR SEA DIR/SP/G                  HT/PER HT/PER
                 (UTC)          (F)     (DEG/KT/KT) (MB)    (MI)  (FT/S) (FT/S)
PORT ARANSAS     1900            78 82  110/ 12/ 13 1015.3F
BUOY 90 E PORT A 1850            80 81   90/ 12/ 16 1014.5F         2/ 6
BUOY 45 SE BAFFI 1850            81 82  100/ 16/ 17 1014.8F         3/ 6   2/16
BUOY 200 E PT IS 1850                                 N/A           2/ 5   2/ 5
BUOY 15 E GALVES 1850            80 84  150/ 14/ 16 1014.5F         2/ 6
$$



USA.gov is the U.S. government's official web portal to all federal, state and local government web resources and services.